Weather in Stoyba

Russia / Amur Oblast     52°47′24″N   131°42′58″E
temp.,
°C
wind,
m/s
gust,
m/s
humid.,
%
clouds,
%
prec.,
mm/h
press.,
hPa
HPBL,
m
12 april, mon
mon1200:00−10sw1191100 0.0 102813
03:00−10nw1188100 0.0 102619
06:00−10nnw118499 0.0 102461
09:00−6ne1154100 0.0 1022715
12:00−4ne2348100 0.0 1018994
15:00−4nne3453100 0.0 10151233
18:00−7nne4778100 0.1 1014545
21:00−8nne4981100 0.2 1014612
13 april, tue
tue1300:00−8nne3987100 0.2 1012721
03:00−9nne3890100 0.4 1010524
06:00−9nne3990100 0.4 1008526
09:00−7ne4680100 0.7 1007839
12:00−4nne4674100 0.3 10051229
15:00−3nne6869100 0.6 10031271
18:00−6nne61175100 0.0 1004841
21:00−10nne51279100 0.1 1005565
14 april, wed
wed1400:00−11nne41180100 0.0 1004585
03:00−11nne4980100 0.0 1004510
06:00−11nne3979100 0.0 1004480
09:00−8nne4564100 0.0 1005975
12:00−5n4556100 0.1 10041645
15:00−4n4555100 0.1 10051641
18:00−4n126281 0.1 100671
21:00−11ssw119386 0.1 100810
15 april, thu
thu1500:00−13s119663 0.0 100910
03:00−14s119854 0.0 101016
06:00−13s12955 0.0 101242
09:00−4ssw236438 0.0 1011592
12:000sw3547100 0.1 10111975
15:00+2wsw2539100 0.1 10102051
18:000sse2464100 0.0 101189
21:00−6e1192100 0.0 101516
16 april, fri
fri1600:00−7ene1193100 0.0 101524
03:00−8ene229394 0.0 101337
06:00−5ene3881100 0.0 1010232
09:00−4ene4994100 4.0 1009390
12:00+1ene468199 1.1 1008584
15:00+4ene3676100 1.4 1007728
18:00+3ne4885100 0.1 1007281
21:00−2nne3794100 0.3 1009194